Lexington Weather

Lexington, Massachusetts, USA

77°F
8/3/2020 7:38am 
  • Lexington Conditions: Clear
  • Temperature: 77.0°F / 25.0°CWarmer 0.5°F than last hour.
  • Dew Point: 73.6°FDecreased 1.2°Fsince last hour.
  • Relative Humidity: 89%Decreased 6.0% since last hour.
  • Wind: Wind from S S 3 mph, 10-min avg: 3 mph, gust: 8 mph
  • Barometer: 29.85 in Steady
  • Visibility: 10 miles
  • Rain Today: 0.00 in
  •   

Regional Weather Roundup
for Boston / Norton, MA

        
000
ASUS41 KBOX 030304
RWRBOX

REGIONAL WEATHER ROUNDUP
NATIONAL WEATHER SERVICE BOSTON/NORTON MA
1100 PM EDT SUN AUG 02 2020

NOTE:  "FAIR" INDICATES FEW OR NO CLOUDS BELOW 12,000 FEET WITH NO 
SIGNIFICANT WEATHER AND/OR OBSTRUCTIONS TO VISIBILITY.

MAZALL-030400-
EASTERN MASSACHUSETTS
  
CITY           SKY/WX    TMP DP  RH WIND       PRES   REMARKS
BOSTON         MOCLDY    77  73  87 S13       29.89F                  
BEVERLY        CLOUDY    73  71  93 SE6       29.89F                  
LAWRENCE       CLOUDY    76  74  93 S3        29.91S                  
BEDFORD        PTCLDY    77  75  93 S8        29.88S                  
BLUE HILL      NOT AVBL                                               
NORWOOD        CLOUDY    80  74  81 S8        29.90R                  
MARSHFIELD     CLOUDY    81  77  89 S9        29.91S                  
PLYMOUTH       CLOUDY    78  75  90 S10G21    29.93S                  
TAUNTON        CLOUDY    81  75  82 S10G16    29.91S                  
NEW BEDFORD    CLOUDY   N/A N/A N/A S15       29.92F                  
$$

MAZALL-030400-
CAPE COD AND THE ISLANDS
  
CITY           SKY/WX    TMP DP  RH WIND       PRES   REMARKS
FALMOUTH       CLOUDY    77  77 100 S17G25    29.94F                  
HYANNIS        CLOUDY    78  76  93 S14G21    29.93F                  
CHATHAM        CLOUDY    73  71  93 VRB7      29.96F                  
PROVINCETOWN   CLOUDY    76  75  97 S10G20    29.93F                  
NANTUCKET      FOG       72  71  97 S15       29.96F VSB 3/4          
MARTHAS VNYRD  CLOUDY    76  75  97 S14       29.94F                  
$$
 
MAZALL-030400-
CENTRAL AND WESTERN MASSACHUSETTS
  
CITY           SKY/WX    TMP DP  RH WIND       PRES   REMARKS
WORCESTER      CLOUDY    75  73  93 S10       29.92F                  
FITCHBURG      CLOUDY    77  73  87 S6        29.89F                  
ORANGE         CLOUDY    77  74  90 S6        29.88F                  
SPRINGFIELD    CLOUDY    78  74  86 S6        29.85F                  
WESTFIELD      CLOUDY    78  76  93 S9        29.86F                  
NORTH ADAMS    CLOUDY    79  73  82 VRB3      29.85S                  
PITTSFIELD     LGT RAIN  78  72  81 S12G17    29.87S                  
$$
 
RIZALL-030400-
RHODE ISLAND
  
CITY           SKY/WX    TMP DP  RH WIND       PRES   REMARKS
PROVIDENCE     CLOUDY    80  76  87 S10       29.91F                  
NEWPORT        CLOUDY    79  76  90 S10       29.93S FOG              
BLOCK ISLAND   CLOUDY    77  75  93 S14       29.93S                  
SMITHFIELD     CLOUDY    77  76  96 S6        29.92F                  
WESTERLY       CLOUDY    75  72  90 S7        29.92S FOG              
$$
 
CTZALL-030400-
CONNECTICUT
  
CITY           SKY/WX    TMP DP  RH WIND       PRES   REMARKS
BRADLEY INTL   MOCLDY    78  75  90 S10       29.86S                  
HARTFORD       PTCLDY    80  75  84 S7        29.86S                  
BRIDGEPORT     PTCLDY    81  74  79 S14       29.87S                  
DANBURY        PTCLDY    79  74  84 S7        29.90R                  
GROTON         CLOUDY    75  73  93 VRB3      29.90S                  
NEW HAVEN      PTCLDY    81  76  84 S10       29.88F                  
CHESTER        NOT AVBL                                               
MERIDEN        PTCLDY    78  74  87 S6        29.88S                  
WILLIMANTIC    CLOUDY    80  75  84 S8        29.89F                  
OXFORD         PTCLDY    77  75  93 S9        29.91S                  
$$

MEZ002-015-021-024-NHZ003-005-008-011-012-014-VTZ005-008-030400-
NORTHERN NEW ENGLAND
  
CITY           SKY/WX    TMP DP  RH WIND       PRES   REMARKS
PORTLAND ME    CLOUDY    74  69  85 S8        29.91S                  
BANGOR ME      CLOUDY    70  65  84 S13       29.95F                  
CONCORD NH     CLOUDY    77  72  84 S13       29.88S                  
MANCHESTER NH  CLOUDY    79  74  84 S9        29.87F                  
NASHUA NH      CLOUDY    77  77 100 VRB6      29.89F                  
PORTSMOUTH NH  MOCLDY    73  70  89 S7        29.88                   
JAFFREY NH     CLOUDY    76  71  85 S7        29.91F                  
KEENE NH       CLOUDY    77 N/A N/A S5        29.87S                  
BURLINGTON VT  CLOUDY    79  70  74 W15G23    29.74R THUNDER          
MT. WASHINGTON LGT RAIN  57  57 100 SW30G44     N/A  VSB 0            
$$

NYZ052-076-030400-
EASTERN NEW YORK
  
CITY           SKY/WX    TMP DP  RH WIND       PRES   REMARKS
ALBANY         MOCLDY    77  74  90 S12       29.81R                  
NEW YORK CITY  MOCLDY    86  73  65 S10       29.87S HX  93           
$$
 
ANZALL-030400-
MARINE OBSERVATIONS
  
STATION/POSITION TIME  TEMP    WIND        PRES    VSBY  WAVE
                       AIR SEA DIR/SP/G                  HT/PER
                 (UTC) (F)     (DEG/KT/KT) (MB)    (MI)  (FT/S)
BOSTON BUOY      0150   70 67  140/ 12/ 12 1011.7          3/ 4
BUZZARDS BAY     0200          170/ 20/ 22 1014.1F
NANTUCKET SOUND  0240      76  180/ 17/ 21 1013.1F
MASS BAY-STELLWA 0204   73     190/ 16/ 17 1010.8F  1 7/8  4/ 5
ISLE OF SHOALS   0200   72     160/ 21/ 23 1012.1F
S OF BLOCK IS    0226      73                N/A           4/ 6
$$

......................KEY.........................
  SKY/WX - SKY CONDITION/PRESENT WEATHER
  TMP    - TEMPERATURE IN FAHRENHEIT
  DWPT   - DEWPOINT IN FAHRENHEIT
  RH     - RELATIVE HUMIDITY IN PERCENT
  WIND   - DIRECTION AND SPEED IN MPH
  PRES   - MEAN SEA LEVEL PRESSURE IN INCHES OF HG
  WCI    - WIND CHILL INDEX
  VSB    - VISIBILITY IN MILES
  HX     - HEAT INDEX
  TC     - TEMPERATURE IN CELSIUS
  VRB    - VARIABLE WIND DIRECTION
  N/A    - NOT AVAILABLE
  
      

Other recent Regional Weather Roundups

Mon Aug 3, 7:04am

Mon Aug 3, 6:04am

Mon Aug 3, 5:04am

Mon Aug 3, 4:04am

Mon Aug 3, 3:04am

Mon Aug 3, 2:04am

Mon Aug 3, 1:04am

Mon Aug 3, 12:05am

Sun Aug 2, 10:04pm

Sun Aug 2, 9:04pm

Sun Aug 2, 8:04pm

Sun Aug 2, 7:04pm

Sun Aug 2, 6:04pm

Sun Aug 2, 5:04pm

Sun Aug 2, 4:05pm

Sun Aug 2, 3:04pm

Sun Aug 2, 2:05pm

Sun Aug 2, 1:04pm

Sun Aug 2, 12:04pm

Sun Aug 2, 11:04am

Sun Aug 2, 10:04am

Sun Aug 2, 9:05am

Sun Aug 2, 8:05am

Sun Aug 2, 7:04am

Sun Aug 2, 6:04am

Sun Aug 2, 5:04am

Sun Aug 2, 4:05am

Sun Aug 2, 3:04am

Sun Aug 2, 2:04am

Sun Aug 2, 1:04am

Sun Aug 2, 12:05am

Sat Aug 1, 11:04pm

Sat Aug 1, 10:04pm

Sat Aug 1, 9:04pm

Sat Aug 1, 8:05pm

Sat Aug 1, 7:04pm

Sat Aug 1, 6:04pm

Sat Aug 1, 5:05pm

Sat Aug 1, 4:05pm

Sat Aug 1, 3:04pm

Sat Aug 1, 2:04pm

Sat Aug 1, 1:04pm

Sat Aug 1, 12:04pm

Sat Aug 1, 11:05am

Sat Aug 1, 10:05am

Sat Aug 1, 9:04am

Sat Aug 1, 8:04am

Sat Aug 1, 7:04am

Sat Aug 1, 6:04am

Sat Aug 1, 5:04am

Sat Aug 1, 4:05am

Sat Aug 1, 3:04am

Sat Aug 1, 2:04am

Sat Aug 1, 1:04am

Sat Aug 1, 12:05am

Fri Jul 31, 11:05pm

Fri Jul 31, 10:04pm

Fri Jul 31, 9:04pm

Fri Jul 31, 8:05pm

Fri Jul 31, 7:05pm

Fri Jul 31, 6:04pm

Fri Jul 31, 5:04pm

Fri Jul 31, 4:05pm

Fri Jul 31, 3:04pm

Fri Jul 31, 2:05pm

Fri Jul 31, 1:04pm

Fri Jul 31, 12:04pm

Fri Jul 31, 11:04am

Fri Jul 31, 10:04am

Fri Jul 31, 9:04am

Fri Jul 31, 8:04am

Fri Jul 31, 7:04am

Fri Jul 31, 6:04am

Fri Jul 31, 5:04am

Fri Jul 31, 4:04am

Fri Jul 31, 3:04am

Fri Jul 31, 2:04am

Fri Jul 31, 1:05am

Fri Jul 31, 12:04am

Thu Jul 30, 11:04pm

Thu Jul 30, 10:04pm

Thu Jul 30, 9:04pm

Thu Jul 30, 8:04pm

Thu Jul 30, 7:05pm

Thu Jul 30, 6:04pm

Thu Jul 30, 5:04pm

Thu Jul 30, 4:05pm

Thu Jul 30, 3:04pm

Thu Jul 30, 2:05pm

Thu Jul 30, 1:04pm

Thu Jul 30, 12:04pm

Thu Jul 30, 11:04am

Thu Jul 30, 10:05am

Thu Jul 30, 9:04am

Thu Jul 30, 8:04am

Thu Jul 30, 7:04am

Thu Jul 30, 6:04am

Thu Jul 30, 5:04am

Thu Jul 30, 4:04am

Thu Jul 30, 3:04am

Thu Jul 30, 2:04am

Thu Jul 30, 1:04am

Thu Jul 30, 12:04am

Wed Jul 29, 11:04pm

Wed Jul 29, 10:04pm

Wed Jul 29, 9:04pm

Wed Jul 29, 8:04pm

Wed Jul 29, 7:05pm

Wed Jul 29, 6:05pm

Wed Jul 29, 5:04pm

Wed Jul 29, 4:04pm

Wed Jul 29, 3:04pm

Wed Jul 29, 2:04pm

Wed Jul 29, 1:05pm

Wed Jul 29, 12:05pm

Wed Jul 29, 11:04am

Wed Jul 29, 10:04am

Wed Jul 29, 9:04am

Wed Jul 29, 8:04am

Wed Jul 29, 7:04am

Wed Jul 29, 6:04am

Wed Jul 29, 5:04am

Wed Jul 29, 4:04am

Wed Jul 29, 3:04am

Wed Jul 29, 2:04am

Wed Jul 29, 1:04am

Wed Jul 29, 12:05am

Tue Jul 28, 11:05pm

Tue Jul 28, 10:05pm

Tue Jul 28, 9:04pm

Tue Jul 28, 8:04pm

Tue Jul 28, 7:04pm

Tue Jul 28, 6:04pm

Tue Jul 28, 5:04pm

Tue Jul 28, 4:05pm

Tue Jul 28, 3:05pm

Tue Jul 28, 2:04pm

Tue Jul 28, 1:05pm

Tue Jul 28, 12:04pm

Tue Jul 28, 11:04am

Tue Jul 28, 10:04am

Tue Jul 28, 9:04am

Tue Jul 28, 8:04am

Tue Jul 28, 7:04am

Tue Jul 28, 6:04am

Tue Jul 28, 5:04am

Tue Jul 28, 4:04am

Tue Jul 28, 3:04am

Tue Jul 28, 2:04am

Tue Jul 28, 1:04am

Tue Jul 28, 12:05am

Mon Jul 27, 11:04pm

Mon Jul 27, 10:05pm

Mon Jul 27, 9:05pm

Mon Jul 27, 8:04pm

Mon Jul 27, 7:04pm

Mon Jul 27, 6:05pm

Mon Jul 27, 5:05pm

Mon Jul 27, 4:04pm

Mon Jul 27, 3:04pm

Mon Jul 27, 2:04pm

Mon Jul 27, 1:04pm

Mon Jul 27, 12:04pm

Mon Jul 27, 11:04am

Mon Jul 27, 10:04am

Mon Jul 27, 9:04am

Mon Jul 27, 8:04am

Meta data:

ID: 6ccf4acc-d057-4382-a08b-1da5f61ff867
Link: https://api.weather.gov/products/6ccf4acc-d057-4382-a08b-1da5f61ff867